| time (UTC) | temp F | wind direction | speed knots | gust knots | rain 1hr in | rain 24hr in | rain mn in | humidity % | barometer mb |
| 20260507223527 | 39 | 32 | 5.2 | 7.8 | 0.00 | 0.00 | 0.00 | 81 | 1010.5 |
| 20260507223016 | 40 | 35 | 5.2 | 9.6 | 0.00 | 0.00 | 0.00 | 80 | 1010.5 |
| 20260507223010 | 40 | 38 | 5.2 | 10.4 | 0.00 | 0.00 | 0.00 | 80 | 1010.0 |
| 20260507222516 | 41 | 34 | 7.0 | 9.6 | 0.00 | 0.00 | 0.00 | 75 | 1010.4 |
| 20260507222038 | 42 | 33 | 5.2 | 8.7 | 0.00 | 0.00 | 0.00 | 70 | 1010.4 |
| 20260507221516 | 42 | 30 | 6.1 | 12.2 | 0.00 | 0.00 | 0.00 | 69 | 1010.3 |
| 20260507221507 | 42 | 30 | 6.1 | 13.0 | 0.00 | 0.00 | 0.00 | 67 | 1010.0 |
| 20260507221015 | 42 | 17 | 7.0 | 12.2 | 0.00 | 0.00 | 0.00 | 67 | 1010.3 |
| 20260507220549 | 41 | 22 | 9.6 | 13.0 | 0.00 | 0.00 | 0.00 | 72 | 1010.3 |
| 20260507220038 | 41 | 17 | 9.6 | 13.9 | 0.00 | 0.00 | 0.00 | 72 | 1010.4 |
| 20260507220003 | 41 | 9 | 10.4 | 14.8 | 0.00 | 0.00 | 0.00 | 71 | 1009.8 |
| 20260507215516 | 45 | 355 | 7.8 | 11.3 | 0.00 | 0.00 | 0.00 | 60 | 1010.3 |
| 20260507215038 | 46 | 221 | 6.1 | 8.7 | 0.00 | 0.00 | 0.00 | 50 | 1010.2 |
| 20260507214504 | 46 | 186 | 2.6 | 8.7 | 0.00 | 0.00 | 0.00 | 51 | 1009.0 |
| 20260507214016 | 45 | 231 | 1.7 | 7.8 | 0.00 | 0.00 | 0.00 | 54 | 1010.2 |
| 20260507213516 | 45 | 183 | 3.5 | 9.6 | 0.00 | 0.00 | 0.00 | 58 | 1010.2 |
| 20260507213039 | 43 | 168 | 5.2 | 7.0 | 0.00 | 0.00 | 0.00 | 63 | 1010.2 |
| 20260507213008 | 43 | 194 | 5.2 | 7.8 | 0.00 | 0.00 | 0.00 | 63 | 1008.9 |
| 20260507212516 | 43 | 67 | 3.5 | 7.8 | 0.00 | 0.00 | 0.00 | 66 | 1010.1 |
| 20260507211539 | 42 | 85 | 6.1 | 7.8 | 0.00 | 0.00 | 0.00 | 69 | 1010.2 |
| 20260507211519 | 42 | 85 | 6.1 | 7.8 | 0.00 | 0.00 | 0.00 | 69 | 1009.0 |
| 20260507211038 | 42 | 89 | 6.1 | 7.8 | 0.00 | 0.00 | 0.00 | 72 | 1010.2 |
| 20260507210538 | 42 | 83 | 7.0 | 7.8 | 0.00 | 0.00 | 0.00 | 72 | 1010.3 |
| 20260507210038 | 41 | 88 | 7.0 | 7.8 | 0.00 | 0.00 | 0.00 | 71 | 1010.3 |
| 20260507210002 | 41 | 84 | 6.1 | 7.8 | 0.00 | 0.00 | 0.00 | 71 | 1009.2 |
| 20260507205528 | 41 | 87 | 6.1 | 11.3 | 0.00 | 0.00 | 0.00 | 75 | 1010.3 |
| 20260507205016 | 40 | 92 | 7.8 | 11.3 | 0.00 | 0.00 | 0.00 | 79 | 1010.4 |
| 20260507204516 | 40 | 87 | 7.0 | 8.7 | 0.00 | 0.00 | 0.00 | 79 | 1010.4 |
| 20260507204503 | 40 | 84 | 7.0 | 8.7 | 0.00 | 0.00 | 0.00 | 78 | 1009.3 |
| 20260507204027 | 40 | 81 | 6.1 | 7.8 | 0.00 | 0.00 | 0.00 | 78 | 1010.4 |
| 20260507203516 | 40 | 59 | 4.3 | 7.0 | 0.00 | 0.00 | 0.00 | 77 | 1010.5 |
| 20260507203016 | 39 | 59 | 7.0 | 7.0 | 0.00 | 0.00 | 0.00 | 78 | 1010.5 |
| 20260507203006 | 39 | 59 | 5.2 | 7.8 | 0.00 | 0.00 | 0.00 | 78 | 1009.4 |
| 20260507202016 | 39 | 79 | 5.2 | 7.0 | 0.00 | 0.00 | 0.00 | 78 | 1010.6 |
| 20260507201516 | 39 | 62 | 5.2 | 6.1 | 0.00 | 0.00 | 0.00 | 77 | 1010.6 |
| 20260507201508 | 39 | 62 | 4.3 | 5.2 | 0.00 | 0.00 | 0.00 | 76 | 1009.6 |
| 20260507201039 | 40 | 62 | 4.3 | 6.1 | 0.00 | 0.00 | 0.00 | 77 | 1010.6 |
| 20260507200516 | 40 | 62 | 4.3 | 6.1 | 0.00 | 0.00 | 0.00 | 76 | 1010.7 |
| 20260507200016 | 40 | 62 | 3.5 | 6.1 | 0.00 | 0.00 | 0.00 | 74 | 1010.7 |
| 20260507200012 | 40 | 62 | 3.5 | 5.2 | 0.00 | 0.00 | 0.00 | 73 | 1010.0 |
| 20260507195516 | 40 | 62 | 4.3 | 6.1 | 0.00 | 0.00 | 0.00 | 75 | 1010.7 |
| 20260507195038 | 40 | 62 | 4.3 | 6.1 | 0.00 | 0.00 | 0.00 | 74 | 1010.7 |
| 20260507194538 | 40 | 85 | 4.3 | 5.2 | 0.00 | 0.00 | 0.00 | 74 | 1010.8 |
| 20260507194504 | 40 | 85 | 3.5 | 5.2 | 0.00 | 0.00 | 0.00 | 73 | 1010.2 |
| 20260507194016 | 40 | 85 | 4.3 | 5.2 | 0.00 | 0.00 | 0.00 | 73 | 1010.8 |
| 20260507193538 | 40 | 85 | 3.5 | 4.3 | 0.00 | 0.00 | 0.00 | 74 | 1010.9 |
| 20260507193017 | 40 | 85 | 2.6 | 4.3 | 0.00 | 0.00 | 0.00 | 75 | 1010.9 |
| 20260507193004 | 40 | 85 | 2.6 | 3.5 | 0.00 | 0.00 | 0.00 | 74 | 1010.7 |
| 20260507192516 | 39 | 341 | 2.6 | 3.5 | 0.00 | 0.00 | 0.00 | 74 | 1011.0 |
| 20260507191506 | 39 | 341 | 0.9 | 2.6 | 0.00 | 0.00 | 0.00 | 74 | 1010.8 |
| 20260507191017 | 39 | 341 | 0.9 | 2.6 | 0.00 | 0.00 | 0.00 | 76 | 1011.2 |
| 20260507190516 | 39 | 341 | 0.9 | 1.7 | 0.00 | 0.00 | 0.00 | 76 | 1011.3 |
| 20260507190038 | 39 | 341 | 0.9 | 2.6 | 0.00 | 0.00 | 0.00 | 76 | 1011.4 |
| 20260507190010 | 39 | 341 | 0.0 | 2.6 | 0.00 | 0.00 | 0.00 | 75 | 1010.0 |
| 20260507185539 | 39 | 341 | 0.9 | 2.6 | 0.00 | 0.00 | 0.00 | 75 | 1011.4 |
| 20260507185016 | 39 | 341 | 1.7 | 3.5 | 0.00 | 0.00 | 0.00 | 76 | 1011.4 |
| 20260507184516 | 39 | 341 | 1.7 | 3.5 | 0.00 | 0.00 | 0.00 | 76 | 1011.4 |
| 20260507184016 | 39 | 341 | 1.7 | 2.6 | 0.00 | 0.00 | 0.00 | 77 | 1011.4 |
| 20260507183538 | 38 | 341 | 1.7 | 4.3 | 0.00 | 0.00 | 0.00 | 77 | 1011.4 |
| 20260507183016 | 38 | 341 | 2.6 | 4.3 | 0.00 | 0.00 | 0.00 | 77 | 1011.5 |
| 20260507183010 | 38 | 341 | 2.6 | 4.3 | 0.00 | 0.00 | 0.00 | 77 | 1010.2 |
| 20260507182516 | 38 | 341 | 3.5 | 4.3 | 0.00 | 0.00 | 0.00 | 77 | 1011.5 |
| 20260507182016 | 39 | 341 | 3.5 | 4.3 | 0.00 | 0.00 | 0.00 | 76 | 1011.6 |
| 20260507181516 | 39 | 341 | 3.5 | 5.2 | 0.00 | 0.00 | 0.00 | 76 | 1011.6 |
| 20260507181504 | 39 | 341 | 2.6 | 6.1 | 0.00 | 0.00 | 0.00 | 76 | 1010.5 |
| 20260507181038 | 39 | 341 | 4.3 | 5.2 | 0.00 | 0.00 | 0.00 | 76 | 1011.6 |
| 20260507180516 | 39 | 340 | 4.3 | 7.0 | 0.00 | 0.00 | 0.00 | 75 | 1011.6 |
| 20260507180006 | 39 | 340 | 4.3 | 7.8 | 0.00 | 0.00 | 0.00 | 73 | 1010.4 |
| 20260507175539 | 40 | 346 | 5.2 | 7.0 | 0.00 | 0.00 | 0.00 | 72 | 1011.6 |
| 20260507175016 | 40 | 334 | 2.6 | 4.3 | 0.00 | 0.00 | 0.00 | 72 | 1011.7 |
| 20260507174517 | 40 | 334 | 2.6 | 5.2 | 0.00 | 0.00 | 0.00 | 73 | 1011.7 |
| 20260507174514 | 40 | 334 | 1.7 | 5.2 | 0.00 | 0.00 | 0.00 | 72 | 1010.5 |
| 20260507174027 | 40 | 334 | 4.3 | 7.8 | 0.00 | 0.00 | 0.00 | 72 | 1011.8 |
| 20260507173516 | 40 | 334 | 4.3 | 7.8 | 0.00 | 0.00 | 0.00 | 73 | 1011.8 |
| 20260507173030 | 40 | 348 | 3.5 | 7.0 | 0.00 | 0.00 | 0.00 | 73 | 1010.4 |
| 20260507173016 | 40 | 348 | 4.3 | 6.1 | 0.00 | 0.00 | 0.00 | 74 | 1011.7 |
| 20260507172516 | 40 | 348 | 2.6 | 3.5 | 0.00 | 0.00 | 0.00 | 74 | 1011.8 |
| 20260507172038 | 39 | 348 | 0.9 | 2.6 | 0.00 | 0.00 | 0.00 | 78 | 1011.9 |
| 20260507171523 | 39 | 348 | 0.0 | 8.7 | 0.00 | 0.00 | 0.00 | 78 | 1010.8 |
| 20260507171516 | 39 | 348 | 0.9 | 6.1 | 0.00 | 0.00 | 0.00 | 79 | 1012.0 |
| 20260507171017 | 39 | 348 | 2.6 | 8.7 | 0.00 | 0.00 | 0.00 | 79 | 1012.0 |
| 20260507170528 | 39 | 360 | 7.0 | 8.7 | 0.00 | 0.00 | 0.00 | 78 | 1011.8 |
| 20260507170038 | 39 | 12 | 7.0 | 8.7 | 0.00 | 0.00 | 0.00 | 76 | 1011.9 |
| 20260507170005 | 39 | 9 | 7.0 | 9.6 | 0.00 | 0.00 | 0.00 | 75 | 1010.7 |
| 20260507165516 | 40 | 327 | 4.3 | 9.6 | 0.00 | 0.00 | 0.00 | 77 | 1011.9 |
| 20260507165016 | 40 | 5 | 7.8 | 9.6 | 0.00 | 0.00 | 0.00 | 75 | 1011.9 |
| 20260507164516 | 40 | 5 | 7.8 | 9.6 | 0.00 | 0.00 | 0.00 | 75 | 1012.0 |
| 20260507164502 | 40 | 347 | 8.7 | 10.4 | 0.00 | 0.00 | 0.00 | 75 | 1011.0 |
| 20260507164016 | 40 | 340 | 7.0 | 11.3 | 0.00 | 0.00 | 0.00 | 76 | 1012.0 |
| 20260507163516 | 40 | 339 | 8.7 | 11.3 | 0.00 | 0.00 | 0.00 | 73 | 1012.0 |
| 20260507163038 | 41 | 355 | 7.8 | 9.6 | 0.00 | 0.00 | 0.00 | 72 | 1012.0 |
| 20260507163007 | 41 | 350 | 7.8 | 10.4 | 0.00 | 0.00 | 0.00 | 73 | 1010.9 |
| 20260507162538 | 41 | 319 | 5.2 | 9.6 | 0.00 | 0.00 | 0.00 | 70 | 1012.1 |
| 20260507162016 | 41 | 336 | 7.8 | 9.6 | 0.00 | 0.00 | 0.00 | 69 | 1012.1 |
| 20260507161517 | 42 | 330 | 7.0 | 13.9 | 0.00 | 0.00 | 0.00 | 67 | 1012.1 |
| 20260507161504 | 42 | 329 | 7.8 | 14.8 | 0.00 | 0.00 | 0.00 | 67 | 1011.2 |
| 20260507160516 | 43 | 262 | 8.7 | 12.2 | 0.00 | 0.00 | 0.00 | 58 | 1012.2 |
| 20260507160004 | 42 | 274 | 8.7 | 18.2 | 0.00 | 0.00 | 0.00 | 62 | 1011.4 |
| 20260507155517 | 42 | 297 | 7.0 | 12.2 | 0.00 | 0.00 | 0.00 | 67 | 1012.2 |
| 20260507155016 | 43 | 346 | 4.3 | 10.4 | 0.00 | 0.00 | 0.00 | 64 | 1012.1 |
| 20260507154508 | 42 | 322 | 0.9 | 8.7 | 0.00 | 0.00 | 0.00 | 66 | 1011.8 |
| 20260507153049 | 43 | 323 | 4.3 | 8.7 | 0.00 | 0.00 | 0.00 | 67 | 1012.3 |
| 20260507153002 | 43 | 331 | 3.5 | 9.6 | 0.00 | 0.00 | 0.00 | 64 | 1012.2 |
| 20260507152527 | 42 | 257 | 5.2 | 8.7 | 0.00 | 0.00 | 0.00 | 62 | 1012.3 |
| 20260507152027 | 42 | 317 | 3.5 | 7.0 | 0.00 | 0.00 | 0.00 | 69 | 1012.3 |
| 20260507151517 | 41 | 320 | 4.3 | 7.0 | 0.00 | 0.00 | 0.00 | 68 | 1012.3 |
| 20260507151503 | 41 | 320 | 4.3 | 7.8 | 0.00 | 0.00 | 0.00 | 68 | 1012.0 |
| 20260507151039 | 41 | 351 | 3.5 | 6.1 | 0.00 | 0.00 | 0.00 | 69 | 1012.4 |
| 20260507150516 | 40 | 355 | 1.7 | 5.2 | 0.00 | 0.00 | 0.00 | 71 | 1012.4 |
| 20260507150040 | 40 | 5 | 3.5 | 8.7 | 0.00 | 0.00 | 0.00 | 72 | 1012.4 |
| 20260507150007 | 40 | 5 | 3.5 | 9.6 | 0.00 | 0.00 | 0.00 | 71 | 1011.5 |
| 20260507145550 | 40 | 334 | 7.0 | 8.7 | 0.00 | 0.00 | 0.00 | 69 | 1012.4 |
| 20260507145016 | 40 | 348 | 5.2 | 7.0 | 0.00 | 0.00 | 0.00 | 72 | 1012.4 |
| 20260507144518 | 40 | 355 | 3.5 | 5.2 | 0.00 | 0.00 | 0.00 | 70 | 1011.1 |
| 20260507144039 | 40 | 355 | 2.6 | 6.1 | 0.00 | 0.00 | 0.00 | 71 | 1012.4 |
| 20260507143538 | 40 | 355 | 4.3 | 7.0 | 0.00 | 0.00 | 0.00 | 71 | 1012.4 |
| 20260507143028 | 41 | 360 | 5.2 | 7.0 | 0.00 | 0.00 | 0.00 | 71 | 1012.4 |
| 20260507143010 | 41 | 5 | 5.2 | 7.8 | 0.00 | 0.00 | 0.00 | 71 | 1011.2 |
| 20260507142538 | 42 | 355 | 5.2 | 6.1 | 0.00 | 0.00 | 0.00 | 69 | 1012.4 |
| 20260507141517 | 42 | 299 | 4.3 | 7.8 | 0.00 | 0.00 | 0.00 | 61 | 1012.4 |
| 20260507141503 | 42 | 302 | 4.3 | 8.7 | 0.00 | 0.00 | 0.00 | 60 | 1011.1 |
| 20260507141017 | 42 | 326 | 3.5 | 8.7 | 0.00 | 0.00 | 0.00 | 60 | 1012.3 |
| 20260507140516 | 42 | 289 | 4.3 | 9.6 | 0.00 | 0.00 | 0.00 | 59 | 1012.4 |
| 20260507140038 | 42 | 238 | 7.0 | 9.6 | 0.00 | 0.00 | 0.00 | 60 | 1012.5 |
| 20260507140004 | 42 | 237 | 6.1 | 10.4 | 0.00 | 0.00 | 0.00 | 59 | 1011.3 |
| 20260507135016 | 42 | 223 | 3.5 | 7.8 | 0.00 | 0.00 | 0.00 | 61 | 1012.4 |
| 20260507134517 | 42 | 244 | 5.2 | 7.8 | 0.00 | 0.00 | 0.00 | 62 | 1012.4 |
| 20260507134507 | 42 | 269 | 5.2 | 8.7 | 0.00 | 0.00 | 0.00 | 61 | 1011.4 |
| 20260507134039 | 42 | 273 | 4.3 | 7.0 | 0.00 | 0.00 | 0.00 | 62 | 1012.5 |
| 20260507133007 | 41 | 206 | 1.7 | 6.1 | 0.00 | 0.00 | 0.00 | 65 | 1011.3 |
| 20260507132517 | 41 | 206 | 2.6 | 7.8 | 0.00 | 0.00 | 0.00 | 65 | 1012.4 |
| 20260507132039 | 41 | 259 | 6.1 | 7.8 | 0.00 | 0.00 | 0.00 | 65 | 1012.4 |
| 20260507131517 | 40 | 213 | 4.3 | 7.0 | 0.00 | 0.00 | 0.00 | 66 | 1012.4 |
| 20260507131512 | 40 | 215 | 4.3 | 7.8 | 0.00 | 0.00 | 0.00 | 66 | 1011.3 |
| 20260507130517 | 40 | 203 | 3.5 | 7.0 | 0.00 | 0.00 | 0.00 | 68 | 1012.5 |
| 20260507130039 | 40 | 189 | 4.3 | 6.1 | 0.00 | 0.00 | 0.00 | 69 | 1012.5 |
| 20260507130003 | 40 | 209 | 3.5 | 7.0 | 0.00 | 0.00 | 0.00 | 69 | 1011.4 |
| 20260507125039 | 39 | 217 | 3.5 | 6.1 | 0.00 | 0.00 | 0.00 | 72 | 1012.5 |
| 20260507124505 | 39 | 236 | 3.5 | 7.0 | 0.00 | 0.00 | 0.00 | 72 | 1011.3 |
| 20260507124016 | 38 | 229 | 4.3 | 6.1 | 0.00 | 0.00 | 0.00 | 73 | 1012.5 |
| 20260507123517 | 38 | 209 | 2.6 | 5.2 | 0.00 | 0.00 | 0.00 | 74 | 1012.5 |
| 20260507123007 | 38 | 226 | 2.6 | 6.1 | 0.00 | 0.00 | 0.00 | 74 | 1011.2 |
| 20260507122017 | 37 | 213 | 4.3 | 6.1 | 0.00 | 0.00 | 0.00 | 75 | 1012.4 |
| 20260507121517 | 37 | 221 | 3.5 | 6.1 | 0.00 | 0.00 | 0.00 | 76 | 1012.5 |
| 20260507121509 | 37 | 221 | 3.5 | 6.1 | 0.00 | 0.00 | 0.00 | 75 | 1011.2 |
| 20260507121050 | 36 | 207 | 3.5 | 6.1 | 0.00 | 0.00 | 0.00 | 76 | 1012.5 |
| 20260507120017 | 36 | 215 | 3.5 | 6.1 | 0.00 | 0.00 | 0.00 | 75 | 1012.4 |
| 20260507120012 | 36 | 217 | 3.5 | 6.1 | 0.00 | 0.00 | 0.00 | 75 | 1011.1 |
| 20260507115517 | 35 | 204 | 3.5 | 6.1 | 0.00 | 0.00 | 0.00 | 76 | 1012.4 |
| 20260507115039 | 35 | 211 | 3.5 | 6.1 | 0.00 | 0.00 | 0.00 | 77 | 1012.4 |
| 20260507114539 | 34 | 215 | 4.3 | 6.1 | 0.00 | 0.00 | 0.00 | 77 | 1012.3 |
| 20260507114506 | 34 | 212 | 3.5 | 6.1 | 0.00 | 0.00 | 0.00 | 77 | 1011.0 |
| 20260507114017 | 34 | 213 | 3.5 | 5.2 | 0.00 | 0.00 | 0.00 | 78 | 1012.3 |
| 20260507113017 | 33 | 216 | 3.5 | 5.2 | 0.00 | 0.00 | 0.00 | 78 | 1012.2 |
| 20260507113012 | 33 | 215 | 2.6 | 5.2 | 0.00 | 0.00 | 0.00 | 78 | 1011.0 |
| 20260507112517 | 33 | 211 | 4.3 | 5.2 | 0.00 | 0.00 | 0.00 | 79 | 1012.2 |
| 20260507111517 | 33 | 215 | 3.5 | 5.2 | 0.00 | 0.00 | 0.00 | 79 | 1012.2 |
| 20260507111509 | 33 | 215 | 2.6 | 5.2 | 0.00 | 0.00 | 0.00 | 79 | 1010.9 |
| 20260507111028 | 33 | 208 | 3.5 | 5.2 | 0.00 | 0.00 | 0.00 | 79 | 1012.2 |
| 20260507110539 | 33 | 211 | 3.5 | 5.2 | 0.00 | 0.00 | 0.00 | 79 | 1012.1 |
| 20260507110028 | 33 | 211 | 3.5 | 5.2 | 0.00 | 0.00 | 0.00 | 79 | 1012.1 |
| 20260507110012 | 33 | 211 | 3.5 | 5.2 | 0.00 | 0.00 | 0.00 | 78 | 1011.1 |
| 20260507105517 | 32 | 211 | 3.5 | 5.2 | 0.00 | 0.00 | 0.00 | 79 | 1012.1 |
| 20260507105017 | 32 | 213 | 3.5 | 5.2 | 0.00 | 0.00 | 0.00 | 79 | 1012.1 |
| 20260507104516 | 32 | 213 | 2.6 | 5.2 | 0.00 | 0.00 | 0.00 | 79 | 1011.5 |
| 20260507104017 | 32 | 213 | 3.5 | 5.2 | 0.00 | 0.00 | 0.00 | 80 | 1011.9 |
| 20260507103017 | 31 | 213 | 4.3 | 5.2 | 0.00 | 0.00 | 0.00 | 79 | 1011.9 |
| 20260507103004 | 31 | 213 | 4.3 | 5.2 | 0.00 | 0.00 | 0.00 | 79 | 1011.3 |
| 20260507102539 | 31 | 209 | 4.3 | 5.2 | 0.00 | 0.00 | 0.00 | 80 | 1011.9 |
| 20260507102017 | 31 | 209 | 2.6 | 5.2 | 0.00 | 0.00 | 0.00 | 80 | 1011.9 |
| 20260507101517 | 31 | 213 | 4.3 | 5.2 | 0.00 | 0.00 | 0.00 | 79 | 1011.9 |
| 20260507101512 | 31 | 197 | 3.5 | 5.2 | 0.00 | 0.00 | 0.00 | 79 | 1010.6 |
| 20260507100539 | 31 | 212 | 3.5 | 6.1 | 0.00 | 0.00 | 0.00 | 79 | 1012.0 |
| 20260507100009 | 32 | 207 | 2.6 | 6.1 | 0.00 | 0.00 | 0.00 | 78 | 1010.7 |
| 20260507095516 | 31 | 201 | 4.3 | 6.1 | 0.00 | 0.00 | 0.00 | 79 | 1012.0 |
| 20260507095039 | 31 | 198 | 3.5 | 6.1 | 0.00 | 0.00 | 0.00 | 79 | 1012.0 |
| 20260507094539 | 31 | 208 | 4.3 | 6.1 | 0.00 | 0.00 | 0.00 | 79 | 1012.0 |
| 20260507094512 | 31 | 205 | 3.5 | 6.1 | 0.00 | 0.00 | 0.00 | 78 | 1010.8 |
| 20260507094050 | 31 | 214 | 4.3 | 5.2 | 0.00 | 0.00 | 0.00 | 79 | 1012.0 |
| 20260507093517 | 31 | 214 | 4.3 | 5.2 | 0.00 | 0.00 | 0.00 | 79 | 1012.0 |
| 20260507093019 | 32 | 208 | 3.5 | 5.2 | 0.00 | 0.00 | 0.00 | 78 | 1011.4 |
| 20260507093017 | 32 | 208 | 4.3 | 5.2 | 0.00 | 0.00 | 0.00 | 78 | 1012.1 |
| 20260507091529 | 32 | 208 | 2.6 | 4.3 | 0.00 | 0.00 | 0.00 | 77 | 1011.6 |
| 20260507091517 | 32 | 208 | 3.5 | 4.3 | 0.00 | 0.00 | 0.00 | 77 | 1012.2 |
| 20260507091017 | 32 | 225 | 3.5 | 4.3 | 0.00 | 0.00 | 0.00 | 77 | 1012.1 |
| 20260507090517 | 32 | 211 | 2.6 | 4.3 | 0.00 | 0.00 | 0.00 | 77 | 1012.1 |
| 20260507090015 | 32 | 211 | 2.6 | 4.3 | 0.00 | 0.00 | 0.00 | 76 | 1011.6 |
| 20260507085517 | 32 | 211 | 3.5 | 4.3 | 0.00 | 0.00 | 0.00 | 77 | 1012.2 |
| 20260507085050 | 32 | 211 | 3.5 | 4.3 | 0.00 | 0.00 | 0.00 | 77 | 1012.2 |
| 20260507084517 | 32 | 211 | 2.6 | 4.3 | 0.00 | 0.00 | 0.00 | 77 | 1012.2 |
| 20260507084508 | 32 | 211 | 2.6 | 4.3 | 0.00 | 0.00 | 0.00 | 76 | 1010.9 |
| 20260507084017 | 32 | 211 | 3.5 | 4.3 | 0.00 | 0.00 | 0.00 | 77 | 1012.2 |
| 20260507083550 | 32 | 211 | 3.5 | 4.3 | 0.00 | 0.00 | 0.00 | 77 | 1012.2 |
| 20260507083017 | 32 | 211 | 3.5 | 4.3 | 0.00 | 0.00 | 0.00 | 76 | 1012.3 |
| 20260507083014 | 32 | 211 | 3.5 | 4.3 | 0.00 | 0.00 | 0.00 | 76 | 1010.9 |
| 20260507082517 | 33 | 211 | 3.5 | 4.3 | 0.00 | 0.00 | 0.00 | 76 | 1012.3 |
| 20260507081518 | 33 | 211 | 2.6 | 5.2 | 0.00 | 0.00 | 0.00 | 75 | 1011.0 |
| 20260507081039 | 33 | 221 | 3.5 | 5.2 | 0.00 | 0.00 | 0.00 | 75 | 1012.3 |
| 20260507080517 | 33 | 219 | 3.5 | 5.2 | 0.00 | 0.00 | 0.00 | 75 | 1012.3 |
| 20260507080028 | 33 | 225 | 3.5 | 5.2 | 0.00 | 0.00 | 0.00 | 75 | 1012.3 |
| 20260507080005 | 33 | 225 | 3.5 | 5.2 | 0.00 | 0.00 | 0.00 | 74 | 1011.4 |
| 20260507075539 | 33 | 225 | 3.5 | 5.2 | 0.00 | 0.00 | 0.00 | 75 | 1012.3 |
| 20260507075017 | 33 | 225 | 2.6 | 5.2 | 0.00 | 0.00 | 0.00 | 75 | 1012.4 |
| 20260507074539 | 33 | 225 | 3.5 | 5.2 | 0.00 | 0.00 | 0.00 | 75 | 1012.4 |
| 20260507074507 | 33 | 225 | 2.6 | 5.2 | 0.00 | 0.00 | 0.00 | 74 | 1012.0 |
| 20260507073517 | 33 | 225 | 3.5 | 4.3 | 0.00 | 0.00 | 0.00 | 74 | 1012.5 |
| 20260507073017 | 33 | 225 | 2.6 | 4.3 | 0.00 | 0.00 | 0.00 | 74 | 1012.5 |
| 20260507073003 | 33 | 225 | 2.6 | 4.3 | 0.00 | 0.00 | 0.00 | 73 | 1011.8 |
| 20260507072540 | 34 | 225 | 1.7 | 3.5 | 0.00 | 0.00 | 0.00 | 73 | 1012.5 |
| 20260507072017 | 34 | 225 | 2.6 | 3.5 | 0.00 | 0.00 | 0.00 | 73 | 1012.5 |
| 20260507071551 | 34 | 225 | 1.7 | 3.5 | 0.00 | 0.00 | 0.00 | 73 | 1012.5 |
| 20260507071504 | 34 | 225 | 0.9 | 4.3 | 0.00 | 0.00 | 0.00 | 72 | 1011.1 |
| 20260507071018 | 34 | 225 | 1.7 | 4.3 | 0.00 | 0.00 | 0.00 | 72 | 1012.5 |
| 20260507070539 | 34 | 225 | 3.5 | 4.3 | 0.00 | 0.00 | 0.00 | 72 | 1012.5 |
| 20260507070017 | 34 | 198 | 2.6 | 4.3 | 0.00 | 0.00 | 0.00 | 72 | 1012.5 |
| 20260507070008 | 34 | 198 | 1.7 | 4.3 | 0.00 | 0.00 | 0.00 | 72 | 1011.2 |
| 20260507065517 | 34 | 198 | 2.6 | 4.3 | 0.00 | 0.00 | 0.00 | 72 | 1012.6 |
| 20260507065017 | 34 | 211 | 2.6 | 5.2 | 0.00 | 0.00 | 0.00 | 72 | 1012.6 |
| 20260507064528 | 35 | 207 | 3.5 | 5.2 | 0.00 | 0.00 | 0.00 | 72 | 1012.7 |
| 20260507064506 | 35 | 207 | 2.6 | 5.2 | 0.00 | 0.00 | 0.00 | 71 | 1011.5 |
| 20260507064028 | 35 | 200 | 3.5 | 5.2 | 0.00 | 0.00 | 0.00 | 72 | 1012.8 |
| 20260507063539 | 35 | 207 | 3.5 | 5.2 | 0.00 | 0.00 | 0.00 | 72 | 1012.8 |
| 20260507063039 | 35 | 200 | 2.6 | 5.2 | 0.00 | 0.00 | 0.00 | 72 | 1012.8 |
| 20260507063006 | 35 | 200 | 1.7 | 5.2 | 0.00 | 0.00 | 0.00 | 71 | 1011.7 |
| 20260507062517 | 35 | 232 | 1.7 | 4.3 | 0.00 | 0.00 | 0.00 | 72 | 1012.8 |
| 20260507062017 | 36 | 199 | 3.5 | 4.3 | 0.00 | 0.00 | 0.00 | 71 | 1012.8 |
| 20260507061517 | 36 | 193 | 2.6 | 4.3 | 0.00 | 0.00 | 0.00 | 71 | 1012.8 |
| 20260507061502 | 36 | 193 | 2.6 | 4.3 | 0.00 | 0.00 | 0.00 | 70 | 1012.5 |
| 20260507061017 | 36 | 213 | 0.0 | 1.7 | 0.00 | 0.00 | 0.00 | 71 | 1012.8 |
| 20260507060539 | 36 | 213 | 0.0 | 3.5 | 0.00 | 0.00 | 0.00 | 70 | 1012.8 |
| 20260507060026 | 37 | 213 | 1.7 | 3.5 | 0.00 | 0.00 | 0.00 | 69 | 1012.9 |
| 20260507060004 | 37 | 194 | 1.7 | 3.5 | 0.00 | 0.00 | 0.00 | 68 | 1012.2 |
| 20260507055017 | 37 | 325 | 0.9 | 3.5 | 0.00 | 0.00 | 0.00 | 69 | 1012.9 |
| 20260507054539 | 37 | 325 | 0.9 | 3.5 | 0.00 | 0.00 | 0.00 | 69 | 1013.0 |
| 20260507054513 | 37 | 325 | 0.9 | 3.5 | 0.00 | 0.00 | 0.00 | 68 | 1011.9 |
| 20260507054017 | 37 | 325 | 0.0 | 2.6 | 0.00 | 0.00 | 0.00 | 70 | 1013.1 |
| 20260507053517 | 37 | 325 | 1.7 | 4.3 | 0.00 | 0.00 | 0.00 | 70 | 1013.2 |
| 20260507053040 | 37 | 350 | 2.6 | 3.5 | 0.00 | 0.00 | 0.00 | 72 | 1013.2 |
| 20260507053006 | 37 | 238 | 1.7 | 4.3 | 0.00 | 0.00 | 0.00 | 71 | 1011.9 |
| 20260507052539 | 36 | 238 | 2.6 | 4.3 | 0.00 | 0.00 | 0.00 | 71 | 1013.2 |
| 20260507052017 | 36 | 238 | 3.5 | 4.3 | 0.00 | 0.00 | 0.00 | 71 | 1013.3 |
| 20260507051517 | 37 | 238 | 2.6 | 4.3 | 0.00 | 0.00 | 0.00 | 71 | 1013.3 |
| 20260507051510 | 37 | 238 | 2.6 | 4.3 | 0.00 | 0.00 | 0.00 | 70 | 1012.0 |
| 20260507051040 | 37 | 238 | 2.6 | 4.3 | 0.00 | 0.00 | 0.00 | 70 | 1013.3 |
| 20260507050540 | 37 | 238 | 1.7 | 3.5 | 0.00 | 0.00 | 0.00 | 70 | 1013.2 |
| 20260507050017 | 36 | 238 | 2.6 | 3.5 | 0.00 | 0.00 | 0.00 | 70 | 1013.3 |
| 20260507050009 | 36 | 238 | 1.7 | 3.5 | 0.00 | 0.00 | 0.00 | 70 | 1012.1 |
| 20260507045517 | 36 | 238 | 2.6 | 3.5 | 0.00 | 0.00 | 0.00 | 71 | 1013.3 |
| 20260507045018 | 37 | 238 | 1.7 | 3.5 | 0.00 | 0.00 | 0.00 | 70 | 1013.3 |
| 20260507044518 | 37 | 238 | 2.6 | 3.5 | 0.00 | 0.00 | 0.00 | 70 | 1013.3 |
| 20260507044503 | 37 | 238 | 1.7 | 3.5 | 0.00 | 0.00 | 0.00 | 70 | 1012.4 |
| 20260507044029 | 37 | 238 | 2.6 | 3.5 | 0.00 | 0.00 | 0.00 | 70 | 1013.3 |
| 20260507043029 | 37 | 238 | 2.6 | 3.5 | 0.00 | 0.00 | 0.00 | 68 | 1013.3 |
| 20260507043009 | 37 | 238 | 1.7 | 3.5 | 0.00 | 0.00 | 0.00 | 67 | 1012.9 |
| 20260507042517 | 38 | 238 | 2.6 | 3.5 | 0.00 | 0.00 | 0.00 | 67 | 1013.4 |
| 20260507042018 | 38 | 238 | 2.6 | 3.5 | 0.00 | 0.00 | 0.00 | 67 | 1013.4 |
| 20260507041540 | 38 | 238 | 2.6 | 3.5 | 0.00 | 0.00 | 0.00 | 67 | 1013.5 |
| 20260507041506 | 38 | 238 | 1.7 | 3.5 | 0.00 | 0.00 | 0.00 | 67 | 1012.8 |
| 20260507041018 | 38 | 238 | 1.7 | 3.5 | 0.00 | 0.00 | 0.00 | 66 | 1013.4 |
| 20260507040540 | 38 | 238 | 1.7 | 3.5 | 0.00 | 0.00 | 0.00 | 65 | 1013.3 |
| 20260507040017 | 38 | 238 | 1.7 | 3.5 | 0.00 | 0.00 | 0.00 | 64 | 1013.4 |
| 20260507040012 | 38 | 238 | 1.7 | 3.5 | 0.00 | 0.00 | 0.00 | 64 | 1012.0 |
| 20260507035017 | 38 | 238 | 1.7 | 4.3 | 0.00 | 0.00 | 0.00 | 64 | 1013.3 |
| 20260507034517 | 38 | 238 | 2.6 | 4.3 | 0.00 | 0.00 | 0.00 | 64 | 1013.3 |
| 20260507034512 | 38 | 238 | 2.6 | 4.3 | 0.00 | 0.00 | 0.00 | 64 | 1012.0 |
| 20260507034017 | 38 | 238 | 2.6 | 3.5 | 0.00 | 0.00 | 0.00 | 65 | 1013.3 |
| 20260507033517 | 39 | 238 | 1.7 | 2.6 | 0.00 | 0.00 | 0.00 | 66 | 1013.3 |
| 20260507033028 | 39 | 238 | 1.7 | 2.6 | 0.00 | 0.00 | 0.00 | 66 | 1013.3 |
| 20260507033002 | 39 | 238 | 0.9 | 2.6 | 0.00 | 0.00 | 0.00 | 65 | 1012.0 |
| 20260507032539 | 39 | 238 | 0.9 | 2.6 | 0.00 | 0.00 | 0.00 | 65 | 1013.3 |
| 20260507032028 | 39 | 238 | 1.7 | 3.5 | 0.00 | 0.00 | 0.00 | 65 | 1013.4 |
| 20260507031503 | 39 | 238 | 0.9 | 3.5 | 0.00 | 0.00 | 0.00 | 64 | 1012.2 |
| 20260507031017 | 39 | 238 | 2.6 | 3.5 | 0.00 | 0.00 | 0.00 | 65 | 1013.5 |
| 20260507030517 | 39 | 238 | 2.6 | 5.2 | 0.00 | 0.00 | 0.00 | 65 | 1013.4 |
| 20260507030018 | 39 | 238 | 3.5 | 5.2 | 0.00 | 0.00 | 0.00 | 65 | 1013.5 |
| 20260507030006 | 39 | 238 | 2.6 | 5.2 | 0.00 | 0.00 | 0.00 | 65 | 1012.9 |
| 20260507025018 | 39 | 271 | 3.5 | 6.1 | 0.00 | 0.00 | 0.00 | 66 | 1013.5 |
| 20260507024518 | 39 | 247 | 3.5 | 6.1 | 0.00 | 0.00 | 0.00 | 66 | 1013.4 |
| 20260507024513 | 39 | 265 | 3.5 | 7.0 | 0.00 | 0.00 | 0.00 | 66 | 1012.8 |
| 20260507024017 | 39 | 252 | 4.3 | 6.1 | 0.00 | 0.00 | 0.00 | 67 | 1013.3 |
| 20260507023517 | 39 | 242 | 1.7 | 3.5 | 0.00 | 0.00 | 0.00 | 70 | 1013.2 |
| 20260507023017 | 39 | 284 | 2.6 | 3.5 | 0.00 | 0.00 | 0.00 | 71 | 1013.2 |
| 20260507023012 | 39 | 284 | 1.7 | 3.5 | 0.00 | 0.00 | 0.00 | 71 | 1012.3 |
| 20260507022539 | 39 | 284 | 1.7 | 3.5 | 0.00 | 0.00 | 0.00 | 72 | 1013.2 |
| 20260507022017 | 39 | 284 | 2.6 | 4.3 | 0.00 | 0.00 | 0.00 | 73 | 1013.2 |
| 20260507021503 | 39 | 284 | 2.6 | 6.1 | 0.00 | 0.00 | 0.00 | 74 | 1012.0 |
| 20260507021050 | 40 | 266 | 3.5 | 6.1 | 0.00 | 0.00 | 0.00 | 75 | 1013.1 |
| 20260507020539 | 40 | 296 | 5.2 | 6.1 | 0.00 | 0.00 | 0.00 | 76 | 1013.2 |
| 20260507020040 | 40 | 331 | 2.6 | 5.2 | 0.00 | 0.00 | 0.00 | 69 | 1013.1 |
| 20260507020008 | 40 | 311 | 1.7 | 3.5 | 0.00 | 0.00 | 0.00 | 69 | 1011.9 |
| 20260507015540 | 40 | 244 | 2.6 | 3.5 | 0.00 | 0.00 | 0.00 | 68 | 1013.1 |
| 20260507015040 | 40 | 220 | 1.7 | 3.5 | 0.00 | 0.00 | 0.00 | 68 | 1013.1 |
| 20260507014528 | 40 | 220 | 1.7 | 3.5 | 0.00 | 0.00 | 0.00 | 67 | 1013.0 |
| 20260507014515 | 40 | 220 | 1.7 | 3.5 | 0.00 | 0.00 | 0.00 | 67 | 1011.8 |
| 20260507014018 | 40 | 220 | 2.6 | 4.3 | 0.00 | 0.00 | 0.00 | 67 | 1013.0 |
| 20260507013519 | 40 | 214 | 2.6 | 4.3 | 0.00 | 0.00 | 0.00 | 67 | 1012.9 |
| 20260507013030 | 40 | 250 | 1.7 | 7.0 | 0.00 | 0.00 | 0.00 | 67 | 1011.8 |
| 20260507012551 | 40 | 250 | 3.5 | 7.0 | 0.00 | 0.00 | 0.00 | 68 | 1012.9 |
| 20260507012040 | 40 | 253 | 4.3 | 8.7 | 0.00 | 0.00 | 0.00 | 75 | 1012.9 |
| 20260507011540 | 40 | 296 | 6.1 | 8.7 | 0.00 | 0.00 | 0.00 | 76 | 1012.8 |
| 20260507011518 | 40 | 291 | 7.0 | 9.6 | 0.00 | 0.00 | 0.00 | 77 | 1012.1 |
| 20260507010551 | 40 | 296 | 5.2 | 10.4 | 0.00 | 0.00 | 0.00 | 77 | 1012.8 |
| 20260507010040 | 40 | 300 | 7.0 | 10.4 | 0.00 | 0.00 | 0.00 | 75 | 1012.8 |
| 20260507010004 | 40 | 295 | 7.8 | 11.3 | 0.00 | 0.00 | 0.00 | 74 | 1012.4 |
| 20260507005518 | 40 | 310 | 7.0 | 10.4 | 0.00 | 0.00 | 0.00 | 73 | 1012.8 |
| 20260507005018 | 40 | 269 | 5.2 | 7.0 | 0.00 | 0.00 | 0.00 | 67 | 1012.8 |
| 20260507004517 | 40 | 273 | 5.2 | 10.4 | 0.00 | 0.00 | 0.00 | 70 | 1012.7 |
| 20260507004508 | 40 | 270 | 5.2 | 12.2 | 0.00 | 0.00 | 0.00 | 71 | 1012.1 |
| 20260507004018 | 40 | 290 | 6.1 | 12.2 | 0.00 | 0.00 | 0.00 | 76 | 1012.7 |
| 20260507003013 | 40 | 282 | 8.7 | 13.0 | 0.00 | 0.00 | 0.00 | 75 | 1011.5 |
| 20260507002519 | 40 | 313 | 8.7 | 11.3 | 0.00 | 0.00 | 0.00 | 76 | 1012.6 |
| 20260507002018 | 40 | 293 | 7.8 | 12.2 | 0.00 | 0.00 | 0.00 | 74 | 1012.6 |
| 20260507001540 | 40 | 295 | 7.0 | 12.2 | 0.00 | 0.00 | 0.00 | 74 | 1012.6 |
| 20260507001518 | 40 | 285 | 7.8 | 13.0 | 0.00 | 0.00 | 0.00 | 74 | 1011.3 |
| 20260507001018 | 40 | 292 | 8.7 | 14.8 | 0.00 | 0.00 | 0.00 | 75 | 1012.6 |
| 20260507000540 | 40 | 296 | 9.6 | 14.8 | 0.00 | 0.00 | 0.00 | 72 | 1012.6 |
| 20260507000020 | 40 | 313 | 10.4 | 15.6 | 0.00 | 0.00 | 0.00 | 71 | 1011.2 |
| 20260507000017 | 40 | 306 | 10.4 | 14.8 | 0.00 | 0.00 | 0.00 | 71 | 1012.5 |
| 20260506235517 | 40 | 313 | 9.6 | 14.8 | 0.00 | 0.00 | 0.00 | 73 | 1012.5 |
| 20260506235018 | 40 | 294 | 9.6 | 13.9 | 0.00 | 0.00 | 0.00 | 75 | 1012.4 |
| 20260506234551 | 40 | 311 | 8.7 | 12.2 | 0.00 | 0.00 | 0.00 | 75 | 1012.4 |
| 20260506234506 | 40 | 298 | 9.6 | 13.0 | 0.00 | 0.00 | 0.00 | 75 | 1011.2 |
| 20260506233518 | 40 | 299 | 8.7 | 12.2 | 0.00 | 0.00 | 0.00 | 75 | 1012.4 |
| 20260506233040 | 40 | 300 | 7.8 | 13.0 | 0.00 | 0.00 | 0.00 | 76 | 1012.5 |
| 20260506233010 | 40 | 294 | 8.7 | 13.9 | 0.00 | 0.00 | 0.00 | 75 | 1011.4 |
| 20260506232529 | 40 | 301 | 10.4 | 13.0 | 0.00 | 0.00 | 0.00 | 75 | 1012.4 |
| 20260506231515 | 40 | 306 | 9.6 | 13.9 | 0.00 | 0.00 | 0.00 | 75 | 1011.5 |
| 20260506231018 | 40 | 283 | 9.6 | 15.6 | 0.00 | 0.00 | 0.00 | 74 | 1012.5 |
| 20260506230519 | 40 | 296 | 8.7 | 16.5 | 0.00 | 0.00 | 0.00 | 75 | 1012.5 |
| 20260506230003 | 40 | 279 | 11.3 | 16.5 | 0.00 | 0.00 | 0.00 | 75 | 1012.0 |
| 20260506225518 | 40 | 329 | 10.4 | 15.6 | 0.00 | 0.00 | 0.00 | 76 | 1012.4 |
| 20260506225018 | 40 | 284 | 10.4 | 15.6 | 0.00 | 0.00 | 0.00 | 75 | 1012.4 |
| 20260506224518 | 40 | 289 | 8.7 | 15.6 | 0.00 | 0.00 | 0.00 | 75 | 1012.4 |
| 20260506224503 | 40 | 265 | 9.6 | 16.5 | 0.00 | 0.00 | 0.00 | 74 | 1012.1 |
| 20260506224018 | 40 | 292 | 12.2 | 15.6 | 0.00 | 0.00 | 0.00 | 72 | 1012.4 |